Location: Perryvale
(54.4667°N, 113.3833°W)
Time: 21:22:04
(UTC+00:00)

Vanguard 1 Rocket - Pass Details

Date: 21 May 2024
Orbit: 649 x 4220 km, 34.3° (Epoch: 19 June)

Event Time Altitude Azimuth Distance (km) Brightness Sun altitude
Rises 19:54:24 0° 252° (WSW) 6,840 12.1 55.6°
Reaches altitude 10° 20:00:49 10° 241° (WSW) 5,126 11.7 55.5°
Maximum altitude 20:10:04 23° 197° (SSW) 3,093 11.3 55.1°
Drops below altitude 10° 20:16:07 10° 149° (SSE) 3,206 10.7 54.8°
Sets 20:19:00 0° 134° (SE) 3,812 10.8 54.7°
